Regional Weather Roundup
Issued by NWS

Home | Current Version | Previous Version | Graphics & Text | Print | Product List | Glossary On
Versions: 1 2 3 4 5 6 7 8 9 10 11 12 13 14 15 16 17 18 19 20 21 22 23 24 25 26 27 28 29 30 31 32 33 34 35 36 37 38 39 40 41 42 43 44 45 46 47 48 49 50
000
ASUS43 KDTX 212301
RWRMI
MICHIGAN HOURLY REGIONAL WEATHER ROUNDUP
NATIONAL WEATHER SERVICE DETROIT/PONTIAC MI
600 PM EST FRI NOV 21 2014

NOTE: "FAIR" INDICATES FEW OR NO CLOUDS BELOW 12,000 FEET WITH NO
SIGNIFICANT WEATHER AND/OR OBSTRUCTION TO VISIBILITY.

MIZ047>049-052>055-059>063-066>070-074>076-081>083-220000-
SOUTHEAST LOWER MICHIGAN

CITY           SKY/WX    TMP DP  RH WIND       PRES   REMARKS
ADRIAN         CLEAR     22  12  65 SW8       30.43F WCI  12
ALMA           CLEAR     22  14  71 S6        30.36S WCI  14
ANN ARBOR      CLEAR     22  12  65 S7        30.41F WCI  13
BAD AXE        MOCLDY    22  12  66 SW9       30.38R WCI  11
DETROIT CITY   CLEAR     25  12  58 SW12      30.44F WCI  14
DETROIT        PTCLDY    21  13  71 S6        30.44F WCI  13
FLINT          CLEAR     21   9  59 S3        30.39F
GROSSE ILE     CLEAR     25  14  63 S7        30.43F WCI  17
HILLSDALE      CLEAR     22  12  63 S6        30.38S WCI  15
HOWELL         CLEAR     23  11  60 S6        30.37F WCI  15

CITY           SKY/WX    TMP DP  RH WIND       PRES   REMARKS
JACKSON        CLEAR     23  11  60 S8        30.39S WCI  14
LAMBERTVILLE   CLEAR     27  14  59 S6        30.45S WCI  20
LANSING        CLEAR     24  12  60 S7        30.38F WCI  16
LAPEER         FAIR      21   9  58 CALM      30.39F
MASON          CLEAR     22  12  64 CALM      30.38S
MONROE         CLEAR     21  12  68 S6        30.43F WCI  14
MT. CLEMENS    CLEAR     22  12  64 S10       30.41S WCI  11
PONTIAC        CLEAR     23  11  60 S9        30.38F WCI  13
PORT HOPE        N/A     24  11  57 VRB6      30.35S WCI  17
PORT HURON     PTCLDY    16   9  73 CALM      30.42F
TRI CITIES     CLEAR     23  13  65 S8        30.37F WCI  14
TROY           CLEAR     27  12  54 S8        30.43F WCI  18
SAGINAW HB     CLEAR     23  14  68 S6        30.37F WCI  16
$$
MIZ043>046-050>051-056>058-064>065-071>073-077>080-220000-
SOUTHWEST LOWER MICHIGAN

CITY           SKY/WX    TMP DP  RH WIND       PRES   REMARKS
BATTLE CREEK   CLEAR     24  11  57 S7        30.37F WCI  16
BENTON HARBOR  CLEAR     27  10  49 SE7       30.35F WCI  19
BIG RAPIDS     PTCLDY    26  17  67 S7        30.30S WCI  19
COLDWATER      CLEAR     25  13  60 S5        30.38F WCI  19
FREMONT        FAIR      27  17  64 S7        30.32S WCI  20
HOLLAND        CLEAR     27  13  55 S7        30.36S WCI  19
GRAND RAPIDS   PTCLDY    22  12  65 S9        30.35F WCI  12
IONIA          FAIR      23  14  68 S8        30.35F WCI  14
KALAMAZOO      CLEAR     25  12  58 S6        30.37F WCI  18
LUDINGTON      PTCLDY    29  21  72 S10G17    30.28F WCI  20
MARSHALL       CLEAR     23  11  61 S5        30.37F WCI  17
MOUNT PLEASANT CLEAR     23  15  70 S5        30.34R WCI  17
MUSKEGON       PTCLDY    29  16  58 S9        30.34S WCI  20
SOUTH HAVEN    CLEAR     28  14  54 S3        30.35F
$$
MIZ016>042-220000-
NORTHERN LOWER MICHIGAN

CITY           SKY/WX    TMP DP  RH WIND       PRES   REMARKS
ALPENA         CLOUDY    25  11  55 SW9       30.27F WCI  15
BEAVER ISLAND  PTCLDY    32  23  69 SW16G25   30.18F WCI  21
BELLAIRE       PTCLDY    26  16  66 S7        30.26F WCI  18
CADILLAC       PTCLDY    22  16  75 S9        30.24S WCI  12
CHARLEVOIX     PTCLDY    26  15  65 S8        30.25F WCI  17
FRANKFORT      PTCLDY    29  20  70 S12G17    30.24F WCI  19
GAYLORD        PTCLDY    19  12  74 S8        30.21F WCI   9
GRAYLING       PTCLDY    24  13  63 S8        30.25F WCI  14
HARBOR SPRINGS PTCLDY    26  15  63 S9G17     30.23F WCI  16
HOUGHTON LAKE  PTCLDY    23  12  62 S9        30.28S WCI  13
MANISTEE       PTCLDY    28  16  59 S7        30.27F WCI  21
OSCODA         CLOUDY    25  12  57 S10       30.31F WCI  15
PELLSTON       MOCLDY    25  14  63 S9        30.23F WCI  15
ROGERS CITY    CLOUDY    25  17  70 SW6       30.27S WCI  18
TRAVERSE CITY  MOCLDY    27  14  58 S5        30.25F WCI  22
$$
MIZ007>008-015-220000-
EASTERN UPPER MICHIGAN

CITY           SKY/WX    TMP DP  RH WIND       PRES   REMARKS
KINROSS        CLOUDY    27  21  80 S12G17    30.16F WCI  16
MACKINAC ISLAN CLOUDY    27  17  64 S9G21     30.20F WCI  18
NEWBERRY       CLOUDY    27  19  74 S18G28    30.11F WCI  13
S. S. MARIE    CLOUDY    25  16  68 S6        30.19R WCI  18
$$
MIZ004>006-011>014-085-220000-
CENTRAL UPPER MICHIGAN

CITY           SKY/WX    TMP DP  RH WIND       PRES   REMARKS
MANISTIQUE     CLOUDY    30  20  67 SW14G23   30.14F WCI  19
ESCANABA       PTCLDY    25   5  42 SW15G23   30.14F WCI  12
MENOMINEE      PTCLDY    27   9  46 SW16G23   30.17F WCI  14
SAWYER-GWINN   CLEAR     19   7  58 S17       30.03F WCI   4
$$
MIZ001>003-009>011-084-220000-
WESTERN UPPER MICHIGAN

CITY           SKY/WX    TMP DP  RH WIND       PRES   REMARKS
IRON MOUNTAIN  MOCLDY    20   3  48 S10       30.08F WCI   9
HOUGHTON       MOCLDY    25   8  48 SW15G23   29.90F WCI  13
COPPER HARBOR    N/A     30  13  49 W14G29    29.90F WCI  19
IRONWOOD       PTCLDY    27  10  50 S16G26    29.89S WCI  14
$$

ABBREVIATIONS USED IN REMARKS
   TC - TEMPERATURE IN CELSIUS
  WCI - WIND CHILL INDEX
   HX - HEAT INDEX
  VSB - VISIBILITY




USA.gov is the U.S. government's official web portal to all federal, state and local government web resources and services.